Other Public Products
Issued by NWS Grand Forks, ND

Home | Current Version | Previous Version | Text Only | Print | Product List | Glossary On
Versions: 1 2 3 4 5 6 7 8 9 10 11 12 13 14 15 16 17 18 19 20 21 22 23 24 25 26 27 28 29 30 31 32 33 34 35 36 37 38 39 40 41 42 43 44 45 46 47 48 49 50
891
FPUS83 KFGF 282310
OPUFGF
PRAIRIE TO PINES WEATHER ROUNDUP
NATIONAL WEATHER SERVICE EASTERN NORTH DAKOTA/GRAND FORKS ND
600 PM CDT SAT MAY 28 2016

 **SATELLITE DATA USED TO AUGMENT SKY COVER AT AUTOMATED STATIONS**
 *****  WEATHER ACROSS EASTERN NORTH DAKOTA  *****

CITY           SKY/WX    TMP DP  RH WIND       PRES   REMARKS
GRAND FORKS    LGT RAIN  68  57  68 NE10      29.81S
GRAND FORKS AF CLOUDY    68  55  64 E9        29.83R
GRAND CITY NWS   N/A     64 N/A N/A NE13        N/A
BUXTON           N/A     66  62  86 NE9         N/A
DEVILS LAKE    CLOUDY    68  57  68 NW8       29.86S
FARGO          CLOUDY    66  57  72 N12       29.81S
WAHPETON ARPT  CLOUDY    66  54  63 N7        29.80S
$$

 *****  WEATHER ACROSS CENTRAL AND WESTERN NORTH DAKOTA  *****

CITY           SKY/WX    TMP DP  RH WIND       PRES   REMARKS
JAMESTOWN      CLOUDY    70  54  56 NW9       29.83S
BISMARCK       PTSUNNY   70  51  51 CALM      29.87R
MINOT          MOSUNNY   71  52  50 MISG      29.87S
MINOT AFB      MOSUNNY   66  52  60 NE5       29.87S
GARRISON         N/A     67  51  56 N5        29.88R
WILLISTON      LGT RAIN  60  55  83 CALM      29.90R
DICKINSON      CLOUDY    64  49  57 W3        29.89R
HETTINGER      SUNNY     65  53  65 NE6       29.91F
$$

 *****  OTHER OBSERVATIONS NORTHEAST NORTH DAKOTA  *****

CITY           SKY/WX    TMP DP  RH WIND       PRES   REMARKS
WALHALLA       FAIR      64  64 100 N16       29.87R
LANGDON        MOCLDY    63  59  88 NE12G18   29.88R
CAVALIER       CLOUDY    66  61  82 NE14      29.85R
GRAFTON        CLOUDY    66  64  94 N9        29.84S
CANDO          CLOUDY    66  57  72 N13       29.89S
FORT TOTTEN      N/A     72  60  66 N5        29.95
ROLLA          CLOUDY    57  57 100 N10       29.92R
RUGBY          FAIR      66  55  68 NE8       29.88R
 ***** THE ABOVE OBSERVATIONS ARE NON NWS ARE NOT QUALITY
        CONTROLLED AND MAY MIS-REPORT RAIN FOR SNOW...
$$

 *****  OTHER OBSERVATIONS SOUTHEAST NORTH DAKOTA *****

CITY           SKY/WX    TMP DP  RH WIND       PRES   REMARKS
COOPERSTOWN    NOT AVBL
VALLEY CITY    MOCLDY    70  57  64 NE9       29.84S
OAKES            N/A    N/A N/A N/A MISG        N/A
GWINNER        MOCLDY    63  61  94 N6        29.84R
SHEYENNE NWR     N/A     67  61  79 E6        29.95S
BUFFALO          N/A     66  54  64 E10         N/A
WYNDMERE         N/A     68  57  68 NE8         N/A
 ***** THE ABOVE OBSERVATIONS ARE NON NWS ARE NOT QUALITY
       CONTROLLED AND MAY MIS-REPORT RAIN FOR SNOW...
$$

  *****  WEATHER ACROSS NORTHERN MINNESOTA  *****

CITY           SKY/WX    TMP DP  RH WIND       PRES   REMARKS
FLAG ISLAND    CLOUDY    59  55  88 N16       29.85S
WARROAD        DRIZZLE   57  55  94 NE9G18    29.86R
ROSEAU         RAIN      61  54  77 NE10      29.85R
HALLOCK        CLOUDY    66  57  72 N12       29.82S
THF RVR FALLS  CLOUDY    61  55  82 NE6       29.84S
HALSTAD        NOT AVBL
FOSSTON        CLOUDY    57  57 100 N5        29.82S
BAUDETTE       LGT RAIN  58  56  93 N13       29.83R
WASKISH        CLOUDY    61  57  88 NE6       29.81S
CROOKSTON      RAIN      63  61  94 NE8       29.83S
$$
  *****  WEATHER ACROSS CENTRAL AND WEST MINNESOTA  *****

CITY           SKY/WX    TMP DP  RH WIND       PRES   REMARKS
BEMIDJI        CLOUDY    59  57  92 CALM      29.80S
PARK RAPIDS    LGT RAIN  60  57  89 CALM      29.79F FOG
WADENA         DRIZZLE   61  55  82 NW3       29.79F
DETROIT LAKES  CLOUDY    61  57  88 NE5       29.82S
MOORHEAD       CLOUDY    64  59  82 N10       29.82S
FERGUS FALLS   CLOUDY    64  55  72 CALM      29.77S
ELBOW LAKE     DRIZZLE   62  58  87 CALM      29.80F
MORRIS MN      CLOUDY    63  61  94 NW6       29.79F
STAPLES        CLOUDY    61  57  88 NW6       29.78F
WHEATON        DRIZZLE   66  57  72 CALM      29.82S
$$
  *****  WEATHER ELSEWHERE ACROSS MINNESOTA  *****

CITY           SKY/WX    TMP DP  RH WIND       PRES   REMARKS
DULUTH         LGT RAIN  55  53  93 SE5       29.80R
INTRNTL FALLS  LGT RAIN  59  58  96 NE5       29.81R VSB 1/2
ELY            CLOUDY    63  61  94 CALM      29.80S
CLOQUET        CLOUDY    61  57  88 E3        29.80R
BRAINERD       CLOUDY    60  58  92 NW3       29.79F
HIBBING        CLOUDY    60  57  89 SE3       29.80R
ALEXANDRIA     CLOUDY    62  58  86 N7        29.80F
SAINT CLOUD    CLOUDY    64  60  87 MISG      29.77S
MINNEAPOLIS    CLOUDY    66  59  78 VRB5      29.77S
$$

  *****  WEATHER ACROSS SOUTH DAKOTA  *****

CITY           SKY/WX    TMP DP  RH WIND       PRES   REMARKS
SIOUX FALLS    LGT RAIN  64  61  90 N8        29.81R
BROOKINGS      PTSUNNY   63  58  83 N7        29.83R
WATERTOWN      CLOUDY    65  57  75 N6        29.83R
HURON          CLOUDY    66  59  78 NE6       29.85R
SISSETON         N/A     69  54  58 NE6       29.80R
ABERDEEN       CLOUDY    69  56  62 E8        29.84S
MITCHELL       LGT RAIN  62  59  90 NW6       29.86S
PIERRE         CLOUDY    72  54  53 E3        29.85R
MOBRIDGE       PTSUNNY   75  49  39 N6        29.83S
RAPID CITY     CLOUDY    66  51  58 W10       29.94S
$$

  *****  SOME WEATHER IN NEARBY STATES *****

CITY           SKY/WX    TMP DP  RH WIND       PRES   REMARKS
GLASGOW MT     PTSUNNY   65  43  44 NW7       29.91R
GREAT FALLS MT PTSUNNY   61  28  28 W16       29.98F
CHEYENNE WY    LGT RAIN  61  38  42 N12G31    30.06R
SCOTTSBLUFF NE PTSUNNY   77  43  29 NW13G20   29.94R
OMAHA NE       PTSUNNY   74  56  53 W16G24    29.82R
DES MOINES IA  MOSUNNY   75  59  57 SW15G24   29.80R
DAVENPORT IA   CLOUDY    76  67  73 SW10      29.83R
CHICAGO IL     MOSUNNY   81  66  60 S20G28    29.87F
EAU CLAIRE WI  CLOUDY    75  61  61 S8        29.74S
LA CROSSE WI   CLOUDY    70  65  84 S9        29.75F
$$

  *****  SOME NATIONAL WEATHER *****

CITY           SKY/WX    TMP DP  RH WIND       PRES   REMARKS
LA GUARDIA NY  CLOUDY    81  69  67 SE14      30.07R
RALEIGH NC     MOSUNNY   85  58  39 SE3       30.11F
ATLANTA GA     MOSUNNY   85  53  33 NE7G16    30.09S
NEW ORLEANS LA PTSUNNY   80  69  69 SE10      30.02R
OKLAHOMA CITY  SUNNY     82  63  52 S6        29.94F
ALBUQUERQUE NM MOSUNNY   80  23  12 SW9       30.04F
SALT LAKE CITY MOSUNNY   75  39  27 N9        30.00F
LOS ANGELES CA PTSUNNY   64  55  72 W13       29.88S
BOISE ID       SUNNY     69  26  20 N8        30.02F
SEATTLE WA     CLOUDY    59  48  67 SW10      30.06S
$$

*** WEATHER ACROSS MANITOBA...SASKATCHEWAN AND ONTARIO ***
                ***ONTARIO***

CITY           SKY/WX    TMP DP  RH WIND       PRES   REMARKS
GERALDTON      LGT RAIN  57  55  94 E13G20    29.89F VSB 1
THUNDER BAY    LGT RAIN  57  57 100 NE7       29.80F FOG
SIOUX LOOKOUT  DRIZZLE   55  52  88 E7G17     29.89S
TORONTO        PTSUNNY   79  63  57 SE10      30.03R
BIG TROUT LK   CLOUDY    54  43  66 E8        30.14S
PICKLE LAKE    CLOUDY    50  48  93 NE10G21   30.01F
DRYDEN         LGT RAIN  54  52  94 NE17G23   29.87S FOG
KENORA         DRIZZLE   55  54  94 NE9       29.89S FOG
$$
                *** MANITOBA***

CITY           SKY/WX    TMP DP  RH WIND       PRES   REMARKS
BRANDON        CLOUDY    55  52  88 NE14      29.93S
DAUPHIN        CLOUDY    54  48  82 NE7       29.97S
ISLAND LAKE    LGT RAIN  48  43  81 NE7       30.09F
PILOT MOUND      N/A     59  55  88 N9          N/A
THE PAS        CLOUDY    55  41  58 NE7       30.04S
THOMPSON       MOSUNNY   50  39  66 E7        30.12F
WINNIPEG       PTSUNNY   66  59  77 NE15      29.88S
LYNN LAKE      SUNNY     50  37  62 SE7       30.09F
GILLAM         MOSUNNY   52  37  58 E9G18     30.18F
$$
                ***SASKATCHEWAN***

CITY           SKY/WX    TMP DP  RH WIND       PRES   REMARKS
ESTEVAN        CLOUDY    61  54  77 E9        29.90S
KINDERSLEY     MOSUNNY   55  45  67 VRB3      29.87F
LLOYDMINSTER   LGT RAIN  50  48  93 W7        29.88R FOG
PRINCE ALBERT  PTSUNNY   61  48  63 E14G21    29.91F
REGINA         LGT RAIN  55  54  94 SW9       29.90R
YORKTON        CLOUDY    57  48  72 SE8       29.94S
N. BATTLEFORD  LGT RAIN  55  55 100 SW8       29.87S FOC1F1C2F2C3F3C4F4C5F5C6F6C7F7C8F8C9F9CaFaCbFbCcFcCdFdCe!



USA.gov is the U.S. government's official web portal to all federal, state and local government web resources and services.